Погода в Ильмине

Россия / Пензенская область     53°47′14″N   45°39′26″E
темп.,
°C
ветер,
м/с
пор.,
м/с
влажн.,
%
обл.,
%
осадки,
мм/ч
давл.,
гПа
погр.,
м
19 сентября, вс
вс1900:00+2всв1180100 0.0 102510
03:00+1в1183100 0.0 102510
06:00+1в2283100 0.0 102611
09:00+7в3353100 0.0 1026591
12:00+10вюв334299 0.0 10251167
15:00+11вюв2338100 0.0 10241340
18:00+8в3649100 0.0 1023111
21:00+7в4954100 0.0 1023233
20 сентября, пн
пн2000:00+5в495796 0.0 1023216
03:00+6вюв51054100 0.0 1023369
06:00+5вюв51162100 0.2 1023430
09:00+5вюв51179100 1.2 1023435
12:00+6вюв61180100 1.3 1023817
15:00+6в61184100 2.9 1023760
18:00+6в71385100 1.9 1022830
21:00+6вюв71484100 3.5 1021816
21 сентября, вт
вт2100:00+6вюв71481100 0.4 1020641
03:00+6вюв71481100 0.8 1019658
06:00+6вюв71489100 1.2 1018593
09:00+6вюв71392100 3.0 1018547
12:00+9юв687999 0.0 1017734
15:00+13вюв676662 0.0 1015905
18:00+10в51167100 0.0 1015401
21:00+7в51178100 0.4 1014298
22 сентября, ср
ср2200:00+8в51175100 0.1 1012311
03:00+8в4982100 0.2 1012295
06:00+9вюв41098100 0.8 1011409
09:00+9вюв4996100 5.1 1010429
12:00+10вюв2397100 5.6 1010170
15:00+11юв239299 6.0 1011301
18:00+10ююв229434 0.1 101228
21:00+8ю229461 0.1 101320
23 сентября, чт
чт2300:00+9ю1290100 0.0 101419
03:00+9в2287100 0.0 101440
06:00+9вюв2291100 0.0 101441
09:00+11вюв2490100 0.1 1014165
12:00+15юв4665100 0.7 10121054
15:00+13юв4879100 1.6 1012649
18:00+11юв51094100 0.8 1012463
21:00+11ююв51096100 3.1 1012763